Time,TemperatureF,DewpointF,PressureIn,WindDirection,WindDirectionDegrees,WindSpeedMPH,WindSpeedGustMPH,Humidity,HourlyPrecipIn,Conditions,Clouds,dailyrainin,SoftwareType,DateUTC
2013-02-21 00:03:00,21.0,16.0,-100.00,West,260,4.0,9.0,82,0.00,,,-99.99,,2013-02-21 05:03:00,
2013-02-21 00:12:00,21.0,16.0,-100.00,West,260,3.0,12.0,80,0.00,,,-99.99,,2013-02-21 05:12:00,
2013-02-21 00:22:00,21.0,14.0,-100.00,NW,305,2.0,9.0,75,0.00,,,-99.99,,2013-02-21 05:22:00,
2013-02-21 00:36:00,21.0,14.0,-100.00,West,280,4.0,10.0,72,0.00,,,-99.99,,2013-02-21 05:36:00,
2013-02-21 00:44:00,21.0,13.0,-100.00,NW,310,1.0,8.0,72,0.00,,,-99.99,,2013-02-21 05:44:00,
2013-02-21 00:53:00,21.0,13.0,-100.00,NW,310,1.0,5.0,71,0.00,,,-99.99,,2013-02-21 05:53:00,
2013-02-21 01:01:00,20.0,13.0,-100.00,NW,310,1.0,7.0,71,0.00,,,-99.99,,2013-02-21 06:01:00,
2013-02-21 01:11:00,20.0,13.0,-100.00,NW,310,0.0,6.0,71,0.00,,,-99.99,,2013-02-21 06:11:00,
2013-02-21 01:21:00,20.0,12.0,-100.00,WNW,300,2.0,6.0,70,0.00,,,-99.99,,2013-02-21 06:21:00,
2013-02-21 01:31:00,20.0,12.0,-100.00,WNW,295,2.0,6.0,69,0.00,,,-99.99,,2013-02-21 06:31:00,
2013-02-21 01:41:00,20.0,11.0,-100.00,West,265,3.0,9.0,68,0.00,,,-99.99,,2013-02-21 06:41:00,
2013-02-21 01:51:00,20.0,12.0,-100.00,WNW,300,1.0,5.0,70,0.00,,,-99.99,,2013-02-21 06:51:00,
2013-02-21 02:01:00,20.0,11.0,-100.00,West,280,1.0,6.0,68,0.00,,,-99.99,,2013-02-21 07:01:00,
2013-02-21 02:11:00,20.0,11.0,-100.00,NW,305,1.0,7.0,68,0.00,,,-99.99,,2013-02-21 07:11:00,
2013-02-21 02:21:00,20.0,11.0,-100.00,West,270,3.0,9.0,68,0.00,,,-99.99,,2013-02-21 07:21:00,
2013-02-21 02:32:00,20.0,12.0,-100.00,West,280,2.0,6.0,70,0.00,,,-99.99,,2013-02-21 07:32:00,
2013-02-21 02:42:00,20.0,12.0,-100.00,West,270,2.0,6.0,71,0.00,,,-99.99,,2013-02-21 07:42:00,
2013-02-21 02:52:00,20.0,12.0,-100.00,West,265,5.0,9.0,71,0.00,,,-99.99,,2013-02-21 07:52:00,
2013-02-21 03:01:00,20.0,12.0,-100.00,West,265,4.0,6.0,72,0.00,,,-99.99,,2013-02-21 08:01:00,
2013-02-21 03:11:00,20.0,12.0,-100.00,West,275,4.0,9.0,72,0.00,,,-99.99,,2013-02-21 08:11:00,
2013-02-21 03:21:00,20.0,13.0,-100.00,West,270,5.0,12.0,73,0.00,,,-99.99,,2013-02-21 08:21:00,
2013-02-21 03:32:00,20.0,13.0,-100.00,West,260,5.0,7.0,74,0.00,,,-99.99,,2013-02-21 08:32:00,
2013-02-21 03:42:00,20.0,13.0,-100.00,West,260,4.0,7.0,75,0.00,,,-99.99,,2013-02-21 08:42:00,
2013-02-21 03:52:00,20.0,13.0,-100.00,West,265,1.0,6.0,75,0.00,,,-99.99,,2013-02-21 08:52:00,
2013-02-21 04:01:00,20.0,13.0,-100.00,WSW,255,3.0,10.0,75,0.00,,,-99.99,,2013-02-21 09:01:00,
2013-02-21 04:11:00,20.0,14.0,-100.00,West,265,4.0,8.0,75,0.00,,,-99.99,,2013-02-21 09:11:00,
2013-02-21 04:22:00,20.0,14.0,-100.00,West,265,4.0,7.0,75,1.10,,,-99.99,,2013-02-21 09:22:00,
2013-02-21 04:32:00,20.0,13.0,-100.00,West,275,6.0,9.0,75,0.00,,,-99.99,,2013-02-21 09:32:00,
2013-02-21 04:41:00,20.0,14.0,-100.00,West,265,4.0,10.0,76,0.00,,,-99.99,,2013-02-21 09:41:00,
2013-02-21 04:51:00,20.0,13.0,-100.00,WSW,255,4.0,9.0,75,0.00,,,-99.99,,2013-02-21 09:51:00,
2013-02-21 05:01:00,20.0,14.0,-100.00,West,265,4.0,9.0,76,0.00,,,-99.99,,2013-02-21 10:01:00,
2013-02-21 05:11:00,20.0,14.0,-100.00,West,265,3.0,7.0,76,0.55,,,-99.99,,2013-02-21 10:11:00,
2013-02-21 05:21:00,20.0,14.0,-100.00,West,260,3.0,9.0,76,0.00,,,-99.99,,2013-02-21 10:21:00,
2013-02-21 05:31:00,20.0,14.0,-100.00,West,265,7.0,11.0,76,0.00,,,-99.99,,2013-02-21 10:31:00,
2013-02-21 05:41:00,20.0,14.0,-100.00,West,265,2.0,6.0,76,0.00,,,-99.99,,2013-02-21 10:41:00,
2013-02-21 05:51:00,20.0,14.0,-100.00,WNW,290,3.0,6.0,76,0.00,,,-99.99,,2013-02-21 10:51:00,
2013-02-21 06:01:00,20.0,14.0,-100.00,WNW,300,1.0,6.0,76,0.00,,,-99.99,,2013-02-21 11:01:00,
2013-02-21 06:11:00,20.0,14.0,-100.00,NW,310,0.0,7.0,76,0.55,,,-99.99,,2013-02-21 11:11:00,
2013-02-21 06:21:00,20.0,14.0,-100.00,WNW,290,2.0,5.0,76,0.00,,,-99.99,,2013-02-21 11:21:00,
2013-02-21 06:31:00,20.0,15.0,-100.00,WNW,300,0.0,6.0,77,0.00,,,-99.99,,2013-02-21 11:31:00,
2013-02-21 06:41:00,20.0,14.0,-100.00,WNW,290,1.0,6.0,75,0.55,,,-99.99,,2013-02-21 11:41:00,
2013-02-21 06:51:00,20.0,14.0,-100.00,NW,310,0.0,4.0,76,0.00,,,-99.99,,2013-02-21 11:51:00,
2013-02-21 07:01:00,20.0,14.0,-100.00,NW,320,0.0,2.0,76,0.00,,,-99.99,,2013-02-21 12:01:00,
2013-02-21 07:11:00,20.0,14.0,-100.00,NW,305,2.0,8.0,76,0.00,,,-99.99,,2013-02-21 12:11:00,
2013-02-21 07:21:00,20.0,14.0,-100.00,WNW,300,2.0,8.0,76,0.00,,,-99.99,,2013-02-21 12:21:00,
2013-02-21 07:32:00,21.0,15.0,-100.00,West,275,0.0,3.0,76,0.00,,,-99.99,,2013-02-21 12:32:00,
2013-02-21 07:42:00,21.0,15.0,-100.00,NW,320,0.0,9.0,77,0.00,,,-99.99,,2013-02-21 12:42:00,
2013-02-21 07:52:00,21.0,15.0,-100.00,NW,320,0.0,5.0,77,0.00,,,-99.99,,2013-02-21 12:52:00,
2013-02-21 08:02:00,21.0,15.0,-100.00,WNW,300,1.0,6.0,77,0.00,,,-99.99,,2013-02-21 13:02:00,
2013-02-21 08:12:00,21.0,14.0,-100.00,NNW,335,0.0,4.0,75,0.00,,,-99.99,,2013-02-21 13:12:00,
2013-02-21 08:22:00,21.0,14.0,-100.00,NW,315,1.0,5.0,73,0.00,,,-99.99,,2013-02-21 13:22:00,
2013-02-21 08:32:00,21.0,14.0,-100.00,NW,320,1.0,3.0,73,0.00,,,-99.99,,2013-02-21 13:32:00,
2013-02-21 08:41:00,21.0,14.0,-100.00,NW,310,1.0,3.0,74,0.00,,,-99.99,,2013-02-21 13:41:00,
2013-02-21 08:51:00,21.0,14.0,-100.00,NW,320,1.0,3.0,74,0.00,,,-99.99,,2013-02-21 13:51:00,
2013-02-21 09:02:00,21.0,15.0,-100.00,NNW,330,0.0,4.0,75,0.00,,,-99.99,,2013-02-21 14:02:00,
2013-02-21 09:11:00,22.0,15.0,-100.00,NW,320,0.0,3.0,74,0.00,,,-99.99,,2013-02-21 14:11:00,
2013-02-21 09:21:00,21.0,15.0,-100.00,NW,325,1.0,2.0,75,0.00,,,-99.99,,2013-02-21 14:21:00,
2013-02-21 09:32:00,21.0,15.0,-100.00,NW,310,1.0,4.0,75,0.00,,,-99.99,,2013-02-21 14:32:00,
2013-02-21 09:42:00,22.0,15.0,-100.00,NW,315,0.0,4.0,76,0.00,,,-99.99,,2013-02-21 14:42:00,
2013-02-21 09:52:00,22.0,14.0,-100.00,NW,320,1.0,6.0,72,0.00,,,-99.99,,2013-02-21 14:52:00,
2013-02-21 10:02:00,22.0,14.0,-100.00,NW,310,1.0,6.0,70,0.00,,,-99.99,,2013-02-21 15:02:00,
2013-02-21 10:12:00,22.0,15.0,-100.00,NW,310,0.0,3.0,72,0.00,,,-99.99,,2013-02-21 15:12:00,
2013-02-21 10:21:00,22.0,15.0,-100.00,North,355,0.0,4.0,73,0.00,,,-99.99,,2013-02-21 15:21:00,
2013-02-21 10:32:00,22.0,14.0,-100.00,NW,305,2.0,6.0,71,0.00,,,-99.99,,2013-02-21 15:32:00,
2013-02-21 10:42:00,22.0,14.0,-100.00,North,350,1.0,4.0,69,0.00,,,-99.99,,2013-02-21 15:42:00,
2013-02-21 10:51:00,23.0,14.0,-100.00,NNW,345,0.0,5.0,68,0.00,,,-99.99,,2013-02-21 15:51:00,
2013-02-21 11:02:00,23.0,14.0,-100.00,NW,325,0.0,5.0,66,0.00,,,-99.99,,2013-02-21 16:02:00,
2013-02-21 11:12:00,23.0,14.0,-100.00,North,5,1.0,7.0,68,0.00,,,-99.99,,2013-02-21 16:12:00,
2013-02-21 11:22:00,23.0,15.0,-100.00,NW,310,1.0,6.0,69,0.00,,,-99.99,,2013-02-21 16:22:00,
2013-02-21 11:32:00,23.0,14.0,-100.00,NNW,335,1.0,6.0,67,0.00,,,-99.99,,2013-02-21 16:32:00,
2013-02-21 11:42:00,23.0,14.0,-100.00,NW,310,1.0,5.0,66,0.00,,,-99.99,,2013-02-21 16:42:00,
2013-02-21 11:52:00,24.0,14.0,-100.00,West,260,0.0,3.0,65,0.00,,,-99.99,,2013-02-21 16:52:00,
2013-02-21 12:01:00,24.0,14.0,-100.00,NW,315,1.0,4.0,63,0.00,,,-99.99,,2013-02-21 17:01:00,
2013-02-21 12:11:00,24.0,14.0,-100.00,NW,305,1.0,4.0,64,0.00,,,-99.99,,2013-02-21 17:11:00,
2013-02-21 12:21:00,24.0,14.0,-100.00,WNW,300,1.0,4.0,64,0.00,,,-99.99,,2013-02-21 17:21:00,
2013-02-21 12:32:00,24.0,13.0,-100.00,WNW,285,2.0,7.0,64,0.00,,,-99.99,,2013-02-21 17:32:00,
2013-02-21 12:42:00,25.0,14.0,-100.00,WNW,300,0.0,6.0,63,0.00,,,-99.99,,2013-02-21 17:42:00,
2013-02-21 12:52:00,24.0,15.0,-100.00,WNW,300,1.0,4.0,66,0.00,,,-99.99,,2013-02-21 17:52:00,
2013-02-21 13:02:00,24.0,14.0,-100.00,West,280,2.0,6.0,65,0.00,,,-99.99,,2013-02-21 18:02:00,
2013-02-21 13:11:00,24.0,15.0,-100.00,West,280,0.0,7.0,66,0.00,,,-99.99,,2013-02-21 18:11:00,
2013-02-21 13:22:00,24.0,14.0,-100.00,WNW,295,0.0,6.0,64,0.00,,,-99.99,,2013-02-21 18:22:00,
2013-02-21 13:32:00,25.0,14.0,-100.00,SW,215,0.0,4.0,62,0.00,,,-99.99,,2013-02-21 18:32:00,
2013-02-21 13:42:00,25.0,16.0,-100.00,West,260,3.0,7.0,69,0.00,,,-99.99,,2013-02-21 18:42:00,
2013-02-21 13:51:00,24.0,15.0,-100.00,North,0,1.0,4.0,65,0.00,,,-99.99,,2013-02-21 18:51:00,
2013-02-21 14:01:00,25.0,15.0,-100.00,NNW,345,0.0,5.0,65,0.00,,,-99.99,,2013-02-21 19:01:00,
2013-02-21 14:12:00,25.0,15.0,-100.00,West,280,1.0,3.0,65,0.00,,,-99.99,,2013-02-21 19:12:00,
2013-02-21 14:21:00,26.0,15.0,-100.00,NW,310,1.0,3.0,64,0.00,,,-99.99,,2013-02-21 19:21:00,
2013-02-21 14:32:00,26.0,16.0,-100.00,East,80,0.0,4.0,65,0.00,,,-99.99,,2013-02-21 19:32:00,
2013-02-21 14:42:00,26.0,16.0,-100.00,NNE,25,4.0,6.0,66,0.00,,,-99.99,,2013-02-21 19:42:00,
2013-02-21 14:51:00,25.0,15.0,-100.00,NNE,20,3.0,6.0,63,0.00,,,-99.99,,2013-02-21 19:51:00,
2013-02-21 15:01:00,25.0,15.0,-100.00,NNE,25,6.0,9.0,64,0.00,,,-99.99,,2013-02-21 20:01:00,
2013-02-21 15:11:00,26.0,15.0,-100.00,NNE,25,4.0,9.0,62,0.00,,,-99.99,,2013-02-21 20:11:00,
2013-02-21 15:21:00,25.0,15.0,-100.00,North,5,4.0,9.0,64,0.00,,,-99.99,,2013-02-21 20:21:00,
2013-02-21 15:32:00,25.0,15.0,-100.00,NNE,25,9.0,12.0,65,0.00,,,-99.99,,2013-02-21 20:32:00,
2013-02-21 15:41:00,26.0,16.0,-100.00,NNE,25,2.0,7.0,65,0.00,,,-99.99,,2013-02-21 20:41:00,
2013-02-21 15:52:00,26.0,15.0,-100.00,ENE,65,4.0,9.0,63,0.00,,,-99.99,,2013-02-21 20:52:00,
2013-02-21 16:02:00,26.0,15.0,-100.00,North,10,2.0,4.0,62,0.00,,,-99.99,,2013-02-21 21:02:00,
2013-02-21 16:12:00,26.0,15.0,-100.00,NE,45,5.0,9.0,63,0.00,,,-99.99,,2013-02-21 21:12:00,
2013-02-21 16:21:00,26.0,16.0,-100.00,NNE,30,3.0,9.0,64,0.00,,,-99.99,,2013-02-21 21:21:00,
2013-02-21 16:32:00,27.0,16.0,-100.00,NE,35,6.0,9.0,61,0.00,,,-99.99,,2013-02-21 21:32:00,
2013-02-21 16:42:00,26.0,16.0,-100.00,NNE,30,7.0,12.0,66,0.00,,,-99.99,,2013-02-21 21:42:00,
2013-02-21 16:52:00,26.0,16.0,-100.00,NE,45,4.0,9.0,66,0.00,,,-99.99,,2013-02-21 21:52:00,
2013-02-21 17:01:00,25.0,16.0,-100.00,NE,40,4.0,9.0,67,0.00,,,-99.99,,2013-02-21 22:01:00,
2013-02-21 17:11:00,25.0,16.0,-100.00,ENE,60,6.0,7.0,66,0.00,,,-99.99,,2013-02-21 22:11:00,
2013-02-21 17:21:00,25.0,16.0,-100.00,ENE,60,3.0,7.0,67,0.00,,,-99.99,,2013-02-21 22:21:00,
2013-02-21 17:32:00,25.0,16.0,-100.00,NE,45,4.0,6.0,66,0.00,,,-99.99,,2013-02-21 22:32:00,
2013-02-21 17:42:00,25.0,15.0,-100.00,NE,55,6.0,8.0,66,0.00,,,-99.99,,2013-02-21 22:42:00,
2013-02-21 17:52:00,25.0,15.0,-100.00,NE,35,4.0,9.0,67,0.00,,,-99.99,,2013-02-21 22:52:00,
2013-02-21 18:01:00,25.0,15.0,-100.00,ENE,60,4.0,7.0,66,0.00,,,-99.99,,2013-02-21 23:01:00,
2013-02-21 18:11:00,25.0,15.0,-100.00,NNE,25,3.0,6.0,67,0.00,,,-99.99,,2013-02-21 23:11:00,
2013-02-21 18:21:00,25.0,15.0,-100.00,ENE,65,4.0,7.0,66,0.00,,,-99.99,,2013-02-21 23:21:00,
2013-02-21 18:32:00,24.0,15.0,-100.00,NE,45,1.0,4.0,67,0.00,,,-99.99,,2013-02-21 23:32:00,
2013-02-21 18:41:00,24.0,15.0,-100.00,NE,45,1.0,7.0,67,0.00,,,-99.99,,2013-02-21 23:41:00,
2013-02-21 18:52:00,24.0,15.0,-100.00,NE,50,2.0,6.0,68,0.00,,,-99.99,,2013-02-21 23:52:00,
2013-02-21 19:01:00,24.0,15.0,-100.00,NE,40,2.0,6.0,68,0.00,,,-99.99,,2013-02-22 00:01:00,
2013-02-21 19:11:00,24.0,15.0,-100.00,NE,45,5.0,7.0,68,0.00,,,-99.99,,2013-02-22 00:11:00,
2013-02-21 19:21:00,24.0,15.0,-100.00,NE,40,2.0,7.0,68,0.00,,,-99.99,,2013-02-22 00:21:00,
2013-02-21 19:32:00,24.0,15.0,-100.00,NE,40,2.0,6.0,69,0.00,,,-99.99,,2013-02-22 00:32:00,
2013-02-21 19:42:00,24.0,15.0,-100.00,NE,55,4.0,7.0,69,0.00,,,-99.99,,2013-02-22 00:42:00,
2013-02-21 19:51:00,24.0,15.0,-100.00,ENE,65,4.0,11.0,69,0.00,,,-99.99,,2013-02-22 00:51:00,
2013-02-21 20:01:00,24.0,15.0,-100.00,ENE,60,6.0,11.0,69,0.00,,,-99.99,,2013-02-22 01:01:00,
2013-02-21 20:11:00,24.0,15.0,-100.00,NE,50,4.0,8.0,69,0.00,,,-99.99,,2013-02-22 01:11:00,
2013-02-21 20:21:00,23.0,15.0,-100.00,NE,55,4.0,9.0,69,0.00,,,-99.99,,2013-02-22 01:21:00,
2013-02-21 20:32:00,23.0,15.0,-100.00,NE,55,7.0,9.0,69,0.00,,,-99.99,,2013-02-22 01:32:00,
2013-02-21 20:42:00,23.0,15.0,-100.00,NE,50,6.0,9.0,69,0.00,,,-99.99,,2013-02-22 01:42:00,
2013-02-21 20:51:00,23.0,15.0,-100.00,ENE,60,5.0,9.0,70,0.00,,,-99.99,,2013-02-22 01:51:00,
2013-02-21 21:02:00,23.0,15.0,-100.00,NE,50,4.0,9.0,70,0.00,,,-99.99,,2013-02-22 02:02:00,
2013-02-21 21:11:00,23.0,15.0,-100.00,NE,50,3.0,9.0,71,0.00,,,-99.99,,2013-02-22 02:11:00,
2013-02-21 21:21:00,23.0,15.0,-100.00,NE,45,3.0,7.0,70,0.00,,,-99.99,,2013-02-22 02:21:00,
2013-02-21 21:32:00,23.0,15.0,-100.00,ENE,60,1.0,6.0,70,0.00,,,-99.99,,2013-02-22 02:32:00,
2013-02-21 21:42:00,23.0,15.0,-100.00,NE,55,5.0,7.0,70,0.00,,,-99.99,,2013-02-22 02:42:00,
2013-02-21 21:52:00,23.0,15.0,-100.00,ENE,60,2.0,9.0,70,0.00,,,-99.99,,2013-02-22 02:52:00,
2013-02-21 22:02:00,23.0,15.0,-100.00,NE,50,6.0,9.0,70,0.00,,,-99.99,,2013-02-22 03:02:00,
2013-02-21 22:11:00,23.0,15.0,-100.00,NNE,30,4.0,9.0,70,0.00,,,-99.99,,2013-02-22 03:11:00,
2013-02-21 22:21:00,23.0,15.0,-100.00,NE,55,6.0,9.0,69,0.00,,,-99.99,,2013-02-22 03:21:00,
2013-02-21 22:32:00,23.0,15.0,-100.00,NE,35,4.0,8.0,70,0.00,,,-99.99,,2013-02-22 03:32:00,
2013-02-21 22:42:00,23.0,15.0,-100.00,ENE,60,3.0,8.0,69,0.00,,,-99.99,,2013-02-22 03:42:00,
2013-02-21 22:51:00,23.0,15.0,-100.00,NE,50,3.0,8.0,70,0.00,,,-99.99,,2013-02-22 03:51:00,
2013-02-21 23:02:00,23.0,15.0,-100.00,East,95,3.0,10.0,69,0.00,,,-99.99,,2013-02-22 04:02:00,
2013-02-21 23:11:00,23.0,15.0,-100.00,NE,50,4.0,7.0,69,0.00,,,-99.99,,2013-02-22 04:11:00,
2013-02-21 23:21:00,23.0,15.0,-100.00,NE,50,3.0,8.0,69,0.00,,,-99.99,,2013-02-22 04:21:00,
2013-02-21 23:32:00,23.0,15.0,-100.00,East,85,4.0,8.0,69,0.00,,,-99.99,,2013-02-22 04:32:00,
2013-02-21 23:42:00,23.0,15.0,-100.00,ENE,70,5.0,9.0,69,0.00,,,-99.99,,2013-02-22 04:42:00,
2013-02-21 23:51:00,23.0,15.0,-100.00,East,90,3.0,9.0,69,0.00,,,-99.99,,2013-02-22 04:51:00,